Starlink 33606

operational
NORAD ID: 63421 Int'l Des: 2025-065 Owner: SPXS Country: US Constellation: starlink
LEOCIRCULAR

About Starlink 33606

Description loading...

Live Position

Loading 3D Globe...

Upcoming Passes

Altitude History

Altitude vs Time

uPlot chart will show altitude changes over time

Two-Line Element Set

1 63421U 25065Y 26063.21786605 .00052146 00000-0 18890-2 0 9992
2 63421 42.9992 137.8693 0001210 262.5061 97.5653 15.27617068 52001
Epoch: Mar 4, 2026 • Age: 23 hours

Current Status

Altitude 482.2 km
Velocity 7.63 km/s
Sub-Earth Point 4.37°N, 1.99°W
Launch Date Mar 31, 2025
Age 0.9 years
Type internet

Technical Details

Classification Payload
Mass 575.00 kg
Dry Mass 530.00 kg
Total Mass 575.00 kg
Length 0.30 m
Diameter 4.10 m
Span 29.00 m
Shape Box + pan
Manufacturer SPXS
Bus Type Starlink V2MO
Phase Status In Orbit
Owner/State SPXS/US

Large Constellations

Loading constellations...